DW9408 Weather Reports


Display with metric or nautical units.
time (UTC)temp
F
wind
direction
speed
MPH
gust
MPH
rain 1hr
in
rain 24hr
in
rain mn
in
humidity
%
barometer
mb
20260905202919 79 44 0.0 0.0 0.00 0.15 0.15 89 1012.3
20260905202413 79 44 0.0 0.0 0.00 0.15 0.15 92 1012.4
20260905201912 78 44 0.0 0.0 0.00 0.15 0.15 90 1012.4
20260905201413 78 44 0.0 0.0 0.00 0.15 0.15 92 1012.4
20260905200914 77 44 0.0 3.0 0.00 0.15 0.15 92 1012.6
20260905200411 77 44 1.0 5.0 0.00 0.15 0.15 94 1012.5
20260905195910 76 346 1.0 6.0 0.00 0.15 0.15 95 1012.4
20260905195409 76 294 1.0 6.0 0.01 0.15 0.15 94 1012.2
20260905194907 75 9 2.0 8.0 0.04 0.15 0.15 95 1012.4
20260905194407 75 331 1.0 8.0 0.07 0.15 0.15 97 1012.5
20260905193905 74 48 1.0 6.0 0.11 0.15 0.15 96 1012.2
20260905193639 73 293 1.0 7.0 0.12 0.15 0.15 97 1012.2
20260905192907 73 252 0.0 7.0 0.15 0.15 0.15 97 1012.3
20260905192407 73 231 0.0 3.0 0.15 0.15 0.15 97 1012.4
20260905191906 72 263 0.0 2.0 0.15 0.15 0.15 97 1012.3
20260905191639 72 5 0.0 2.0 0.15 0.15 0.15 96 1012.3
20260905190904 72 69 0.0 2.0 0.15 0.15 0.15 95 1012.1
20260905190402 72 195 0.0 5.0 0.15 0.15 0.15 94 1012.4
20260905185902 72 195 2.0 12.0 0.15 0.15 0.15 93 1012.9
20260905185359 73 302 4.0 17.0 0.14 0.14 0.14 92 1013.7
20260905184400 75 336 9.0 24.0 0.08 0.08 0.08 88 1014.5
20260905183900 78 341 8.0 24.0 0.04 0.04 0.05 85 1014.4
20260905183400 82 13 4.0 20.0 0.03 0.03 0.03 81 1013.8
20260905182902 86 344 0.0 7.0 0.00 0.00 0.01 83 1013.4
20260905182403 87 295 0.0 0.0 0.00 0.00 0.00 84 1012.8
20260905181903 88 295 0.0 0.0 0.00 0.00 0.00 81 1012.2
20260905181404 89 295 0.0 0.0 0.00 0.00 0.00 77 1011.6
20260905180900 90 295 0.0 0.0 0.00 0.00 0.00 77 1011.7
20260905180402 91 295 0.0 0.0 0.00 0.00 0.00 73 1012.1
20260905175900 91 295 0.0 0.0 0.00 0.00 0.00 70 1012.4
20260905175630 92 295 0.0 1.0 0.00 0.00 0.00 70 1012.4
20260905174859 93 294 0.0 3.0 0.00 0.00 0.00 64 1012.4
20260905174400 93 287 0.0 3.0 0.00 0.00 0.00 62 1012.4
20260905173900 94 244 0.0 0.0 0.00 0.00 0.00 61 1012.5
20260905173630 94 244 0.0 0.0 0.00 0.00 0.00 59 1012.6
20260905172858 94 244 0.0 2.0 0.00 0.00 0.00 59 1012.7
20260905172623 93 244 0.0 2.0 0.00 0.00 0.00 60 1012.7
20260905171846 93 244 0.0 2.0 0.00 0.00 0.00 61 1012.9
20260905171612 93 244 0.0 2.0 0.00 0.00 0.00 61 1012.8
20260905170834 93 157 0.0 0.0 0.00 0.00 0.00 67 1012.8
20260905170328 93 156 0.0 1.0 0.00 0.00 0.00 62 1013.0
20260905165822 93 155 0.0 5.0 0.00 0.00 0.00 65 1013.0
20260905165315 93 150 0.0 5.0 0.00 0.00 0.00 67 1013.0
20260905164811 93 67 0.0 4.0 0.00 0.00 0.00 64 1013.2
20260905164304 92 165 0.0 4.0 0.00 0.00 0.00 67 1013.2
20260905163758 92 218 0.0 1.0 0.00 0.00 0.00 71 1013.3
20260905163252 92 218 0.0 1.0 0.00 0.00 0.00 66 1013.4
20260905162746 92 218 0.0 1.0 0.00 0.00 0.00 67 1013.4
20260905162239 92 246 0.0 1.0 0.00 0.00 0.00 67 1013.5
20260905161734 92 246 0.0 1.0 0.00 0.00 0.00 68 1013.5
20260905161229 92 196 0.0 0.0 0.00 0.00 0.00 68 1013.6
20260905160722 92 179 0.0 1.0 0.00 0.00 0.00 69 1013.6
20260905160447 92 178 0.0 1.0 0.00 0.00 0.00 71 1013.6
20260905155710 91 198 0.0 0.0 0.00 0.00 0.00 71 1013.6
20260905155203 91 198 0.0 0.0 0.00 0.00 0.00 71 1013.6
20260905154657 91 198 0.0 0.0 0.00 0.00 0.00 71 1013.7
20260905154152 90 198 0.0 2.0 0.00 0.00 0.00 72 1013.7
20260905153645 90 198 0.0 2.0 0.00 0.00 0.00 69 1013.7
20260905153140 90 198 0.0 0.0 0.00 0.00 0.00 70 1013.6
20260905152634 90 198 0.0 1.0 0.00 0.00 0.00 71 1013.7
20260905152128 90 184 0.0 1.0 0.00 0.00 0.00 72 1013.7
20260905151852 90 184 0.0 0.0 0.00 0.00 0.00 73 1013.7
20260905151116 89 184 0.0 0.0 0.00 0.00 0.00 76 1013.7
20260905150610 89 184 0.0 0.0 0.00 0.00 0.00 76 1013.7
20260905150334 88 247 0.0 0.0 0.00 0.00 0.00 75 1013.7
20260905145828 88 247 0.0 1.0 0.00 0.00 0.00 78 1013.7
20260905145052 87 247 0.0 1.0 0.00 0.00 0.00 79 1013.7
20260905144547 87 257 0.0 0.0 0.00 0.00 0.00 80 1013.7
20260905144039 87 257 0.0 0.0 0.00 0.00 0.00 79 1013.7
20260905143533 87 257 0.0 0.0 0.00 0.00 0.00 80 1013.8
20260905143028 87 257 0.0 0.0 0.00 0.00 0.00 81 1013.8
20260905142522 86 257 0.0 0.0 0.00 0.00 0.00 84 1013.8
20260905142246 85 257 0.0 0.0 0.00 0.00 0.00 83 1013.8
20260905141741 85 257 0.0 0.0 0.00 0.00 0.00 84 1013.8
20260905141004 84 257 0.0 0.0 0.00 0.00 0.00 86 1013.8
20260905140730 83 257 0.0 0.0 0.00 0.00 0.00 88 1013.8
20260905140224 83 257 0.0 0.0 0.00 0.00 0.00 88 1013.8
20260905135445 82 257 0.0 0.0 0.00 0.00 0.00 90 1013.8
20260905134940 81 257 0.0 0.0 0.00 0.00 0.00 91 1013.8
20260905134433 81 257 0.0 0.0 0.00 0.00 0.00 92 1013.9
20260905133928 80 257 0.0 0.0 0.00 0.00 0.00 93 1013.9
20260905133422 79 257 0.0 1.0 0.00 0.00 0.00 96 1014.1
20260905132916 79 257 0.0 1.0 0.00 0.00 0.00 99 1014.1
20260905132409 78 257 0.0 0.0 0.00 0.00 0.00 99 1014.1
20260905131904 77 257 0.0 0.0 0.00 0.00 0.00 99 1014.1
20260905131358 77 257 0.0 0.0 0.00 0.00 0.00 100 1014.2
20260905130857 76 257 0.0 0.0 0.00 0.00 0.00 100 1014.2
20260905130355 76 257 0.0 0.0 0.00 0.00 0.00 100 1014.1
20260905125853 76 257 0.0 0.0 0.00 0.00 0.00 100 1014.1
20260905124849 75 257 0.0 0.0 0.00 0.00 0.00 100 1014.2
20260905124349 74 257 0.0 0.0 0.00 0.00 0.00 100 1014.3
20260905123849 73 257 0.0 0.0 0.00 0.00 0.00 100 1014.3
20260905123347 72 257 0.0 0.0 0.00 0.00 0.00 100 1014.2
20260905122845 72 257 0.0 0.0 0.00 0.00 0.00 100 1014.1
20260905122343 71 257 0.0 0.0 0.00 0.00 0.00 100 1014.1
20260905121840 71 257 0.0 0.0 0.00 0.00 0.00 100 1014.1
20260905121339 71 257 0.0 0.0 0.00 0.00 0.00 100 1014.1
20260905120837 70 257 0.0 0.0 0.00 0.00 0.00 100 1014.1
20260905120336 70 257 0.0 0.0 0.00 0.00 0.00 100 1014.1
20260905120103 70 257 0.0 0.0 0.00 0.00 0.00 100 1014.0
20260905115601 70 257 0.0 0.0 0.00 0.00 0.00 100 1013.9
20260905114830 70 257 0.0 0.0 0.00 0.00 0.00 100 1013.9
20260905114329 70 257 0.0 0.0 0.00 0.00 0.00 100 1013.7
20260905113828 70 257 0.0 0.0 0.00 0.00 0.00 100 1013.7
20260905113331 70 257 0.0 0.0 0.00 0.00 0.00 100 1013.7
20260905113100 70 257 0.0 0.0 0.00 0.00 0.00 100 1013.6
20260905112558 70 257 0.0 0.0 0.00 0.00 0.00 100 1013.6
20260905112059 70 257 0.0 0.0 0.00 0.00 0.00 100 1013.4
20260905111327 70 257 0.0 0.0 0.00 0.00 0.00 100 1013.5
20260905110826 70 257 0.0 0.0 0.00 0.00 0.00 100 1013.4
20260905110326 70 257 0.0 0.0 0.00 0.00 0.00 100 1013.3
20260905105827 70 257 0.0 0.0 0.00 0.00 0.00 100 1013.2
20260905104827 70 257 0.0 0.0 0.00 0.00 0.00 100 1013.0
20260905104553 70 257 0.0 0.0 0.00 0.00 0.00 100 1013.0
20260905103823 70 257 0.0 0.0 0.00 0.00 0.00 100 1012.9
20260905103324 70 257 0.0 0.0 0.00 0.00 0.00 100 1012.9
20260905102823 70 257 0.0 0.0 0.00 0.00 0.00 100 1012.8
20260905102324 70 257 0.0 0.0 0.00 0.00 0.00 100 1012.8
20260905101823 70 257 0.0 0.0 0.00 0.00 0.00 100 1012.8
20260905101322 70 257 0.0 0.0 0.00 0.00 0.00 100 1012.7
20260905100822 71 257 0.0 0.0 0.00 0.00 0.00 100 1012.8
20260905100324 71 257 0.0 0.0 0.00 0.00 0.00 100 1012.8
20260905095820 71 257 0.0 0.0 0.00 0.00 0.00 100 1012.8
20260905095552 71 257 0.0 0.0 0.00 0.00 0.00 100 1012.7
20260905094822 71 257 0.0 0.0 0.00 0.00 0.00 100 1012.6
20260905094318 71 257 0.0 0.0 0.00 0.00 0.00 100 1012.7
20260905093817 71 257 0.0 0.0 0.00 0.00 0.00 100 1012.7
20260905093317 71 257 0.0 0.0 0.00 0.00 0.00 100 1012.8
20260905092817 71 257 0.0 0.0 0.00 0.00 0.00 100 1012.8
20260905092317 71 257 0.0 0.0 0.00 0.00 0.00 100 1012.8
20260905091817 71 257 0.0 0.0 0.00 0.00 0.00 100 1012.8
20260905091545 71 257 0.0 0.0 0.00 0.00 0.00 100 1012.8
20260905090814 71 257 0.0 0.0 0.00 0.00 0.00 100 1012.7
20260905090314 71 257 0.0 0.0 0.00 0.00 0.00 100 1012.8
20260905085814 71 257 0.0 0.0 0.00 0.00 0.00 100 1012.9
20260905085550 71 257 0.0 0.0 0.00 0.00 0.00 100 1012.8
20260905084315 71 257 0.0 0.0 0.00 0.00 0.00 100 1013.0
20260905083814 71 257 0.0 0.0 0.00 0.00 0.00 100 1013.1
20260905083308 71 257 0.0 0.0 0.00 0.00 0.00 100 1013.1
20260905082801 71 257 0.0 0.0 0.00 0.00 0.00 100 1013.1
20260905082255 71 257 0.0 0.0 0.00 0.00 0.00 100 1013.2
20260905082019 72 257 0.0 0.0 0.00 0.00 0.00 100 1013.2
20260905081515 72 257 0.0 0.0 0.00 0.00 0.00 100 1013.3
20260905080737 72 257 0.0 0.0 0.00 0.00 0.00 100 1013.3
20260905080230 72 257 0.0 0.0 0.00 0.00 0.00 100 1013.4
20260905075724 72 257 0.0 0.0 0.00 0.00 0.00 100 1013.5
20260905075218 72 257 0.0 0.0 0.00 0.00 0.00 100 1013.5
20260905074712 72 257 0.0 0.0 0.00 0.00 0.00 100 1013.5
20260905074207 72 257 0.0 0.0 0.00 0.00 0.00 100 1013.6
20260905073701 72 257 0.0 0.0 0.00 0.00 0.00 100 1013.6
20260905073155 72 257 0.0 0.0 0.00 0.00 0.00 100 1013.6
20260905072921 73 257 0.0 0.0 0.00 0.00 0.00 100 1013.7
20260905072143 73 257 0.0 0.0 0.00 0.00 0.00 100 1013.6
20260905071908 73 257 0.0 0.0 0.00 0.00 0.00 100 1013.7
20260905071130 73 257 0.0 0.0 0.00 0.00 0.00 100 1013.6
20260905070625 73 257 0.0 0.0 0.00 0.00 0.00 100 1013.7
20260905070118 73 257 0.0 0.0 0.00 0.00 0.00 100 1013.7
20260905065844 73 257 0.0 0.0 0.00 0.00 0.00 100 1013.7
20260905065107 73 257 0.0 0.0 0.00 0.00 0.00 100 1013.8
20260905064833 73 257 0.0 0.0 0.00 0.00 0.00 100 1013.9
20260905064325 73 257 0.0 0.0 0.00 0.00 0.00 100 1013.9
20260905063549 73 257 0.0 0.0 0.00 0.00 0.00 100 1013.9
20260905063044 73 257 0.0 0.0 0.00 0.00 0.00 100 1014.0
20260905062537 73 257 0.0 0.0 0.00 0.00 0.00 100 1014.0
20260905062305 73 257 0.0 0.0 0.00 0.00 0.00 100 1014.1
20260905061524 73 257 0.0 0.0 0.00 0.00 0.00 100 1014.1
20260905061249 73 257 0.0 0.0 0.00 0.00 0.00 100 1014.1
20260905060512 73 257 0.0 0.0 0.00 0.00 0.00 100 1014.1
20260905060007 73 257 0.0 0.0 0.00 0.00 0.00 100 1014.2
20260905055504 73 257 0.0 0.0 0.00 0.00 0.00 100 1014.4
20260905055004 73 257 0.0 0.0 0.00 0.00 0.00 100 1014.4
20260905054503 74 257 0.0 0.0 0.00 0.00 0.00 99 1014.5
20260905054231 74 257 0.0 0.0 0.00 0.00 0.00 100 1014.5
20260905053458 74 257 0.0 0.0 0.00 0.00 0.00 100 1014.4
20260905052956 74 257 0.0 0.0 0.00 0.00 0.00 100 1014.3
20260905052454 74 257 0.0 0.0 0.00 0.00 0.00 100 1014.4
20260905051951 74 257 0.0 0.0 0.00 0.00 0.00 100 1014.4
20260905051453 74 257 0.0 0.0 0.00 0.00 0.00 100 1014.4
20260905050952 74 257 0.0 0.0 0.00 0.00 0.00 100 1014.3
20260905050450 74 257 0.0 0.0 0.00 0.00 0.00 99 1014.4
20260905045948 74 257 0.0 0.0 0.00 0.00 0.00 100 1014.5
20260905045448 74 257 0.0 0.0 0.00 0.00 0.00 99 1014.5
20260905044949 74 257 0.0 0.0 0.00 0.00 0.00 99 1014.4
20260905044446 74 257 0.0 0.0 0.00 0.00 0.00 100 1014.4
20260905043945 74 257 0.0 0.0 0.00 0.00 0.00 100 1014.5
20260905043442 74 257 0.0 0.0 0.00 0.00 0.00 100 1014.4
20260905042940 74 257 0.0 0.0 0.00 0.00 0.00 99 1014.4
20260905042440 75 257 0.0 0.0 0.00 0.00 0.00 99 1014.4
20260905041935 75 257 0.0 0.0 0.00 0.00 0.00 99 1014.4
20260905041433 75 257 0.0 0.0 0.00 0.00 0.00 99 1014.4
20260905040932 76 257 0.0 0.0 0.00 0.00 0.00 100 1014.3
20260905035928 76 257 0.0 0.0 0.00 0.00 0.00 99 1014.2
20260905035426 76 257 0.0 0.0 0.00 0.00 0.00 99 1014.2
20260905034926 76 257 0.0 0.0 0.00 0.00 0.00 99 1014.3
20260905034425 76 257 0.0 0.0 0.00 0.00 0.00 99 1014.3
20260905033424 76 257 0.0 0.0 0.00 0.00 0.00 99 1014.2
20260905033155 76 257 0.0 0.0 0.00 0.00 0.00 99 1014.2
20260905032425 76 257 0.0 0.0 0.00 0.00 0.00 99 1014.2
20260905031925 76 257 0.0 0.0 0.00 0.00 0.00 99 1014.3
20260905031425 76 257 0.0 0.0 0.00 0.00 0.00 99 1014.3
20260905030925 77 257 0.0 0.0 0.00 0.00 0.00 99 1014.3
20260905030427 77 257 0.0 0.0 0.00 0.00 0.00 99 1014.4
20260905025928 76 257 0.0 0.0 0.00 0.00 0.00 99 1014.5
20260905025659 77 257 0.0 0.0 0.00 0.00 0.00 99 1014.5
20260905024929 77 257 0.0 0.0 0.00 0.00 0.00 99 1014.6
20260905024427 77 257 0.0 0.0 0.00 0.00 0.00 99 1014.7
20260905023925 77 257 0.0 0.0 0.00 0.00 0.00 99 1014.7
20260905023425 77 257 0.0 0.0 0.00 0.00 0.00 99 1014.6
20260905022919 77 257 0.0 0.0 0.00 0.00 0.00 99 1014.7
20260905022644 77 257 0.0 0.0 0.00 0.00 0.00 98 1014.7
20260905021907 77 257 0.0 0.0 0.00 0.00 0.00 97 1014.8
20260905021401 77 257 0.0 0.0 0.00 0.00 0.00 97 1014.8
20260905020855 78 257 0.0 0.0 0.00 0.00 0.00 98 1014.8
20260905020621 78 257 0.0 0.0 0.00 0.00 0.00 98 1014.9
20260905015844 78 257 0.0 0.0 0.00 0.00 0.00 98 1014.9
20260905015337 78 257 0.0 0.0 0.00 0.00 0.00 97 1014.9
20260905014832 78 257 0.0 0.0 0.00 0.00 0.00 97 1015.0
20260905014326 78 257 0.0 0.0 0.00 0.00 0.00 97 1015.0
20260905013819 78 257 0.0 0.0 0.00 0.00 0.00 97 1014.9
20260905013313 78 257 0.0 0.0 0.00 0.00 0.00 97 1014.9
20260905012807 79 257 0.0 0.0 0.00 0.00 0.00 97 1014.8
20260905012301 79 257 0.0 0.0 0.00 0.00 0.00 97 1014.8
20260905011756 79 257 0.0 0.0 0.00 0.00 0.00 96 1014.9
20260905011249 79 257 0.0 0.0 0.00 0.00 0.00 96 1014.8
20260905010237 80 257 0.0 0.0 0.00 0.00 0.00 95 1014.8
20260905005735 80 257 0.0 0.0 0.00 0.00 0.00 96 1014.7
20260905005503 80 257 0.0 0.0 0.00 0.00 0.00 96 1014.7
20260905004731 80 257 0.0 0.0 0.00 0.00 0.00 95 1014.7
20260905004230 81 257 0.0 0.0 0.00 0.00 0.00 95 1014.7
20260905003726 81 257 0.0 0.0 0.00 0.00 0.00 94 1014.6
20260905003456 81 257 0.0 0.0 0.00 0.00 0.00 94 1014.5
20260905002722 81 257 0.0 0.0 0.00 0.00 0.00 93 1014.5
20260905002223 82 257 0.0 0.0 0.00 0.00 0.00 92 1014.4
20260905001723 82 257 0.0 0.0 0.00 0.00 0.00 91 1014.3
20260905001223 83 257 0.0 0.0 0.00 0.00 0.00 90 1014.3
20260905000723 83 257 0.0 0.0 0.00 0.00 0.00 89 1014.3
20260905000226 84 257 0.0 0.0 0.00 0.00 0.00 88 1014.3
20260904235723 85 257 0.0 0.0 0.00 0.00 0.00 87 1014.3
20260904235222 85 257 0.0 0.0 0.00 0.00 0.00 87 1014.2
20260904234948 85 257 0.0 0.0 0.00 0.00 0.00 85 1014.2
20260904234449 86 257 0.0 0.0 0.00 0.00 0.00 84 1014.2
20260904233719 87 257 0.0 0.0 0.00 0.00 0.00 83 1014.1
20260904233219 87 257 0.0 0.0 0.00 0.00 0.00 82 1014.1
20260904232718 88 257 0.0 0.0 0.00 0.00 0.00 81 1014.0
20260904232214 89 257 0.0 0.0 0.00 0.00 0.00 81 1013.9
20260904231706 88 257 0.0 0.0 0.00 0.00 0.00 80 1013.8
20260904230654 89 257 0.0 0.0 0.00 0.00 0.00 78 1013.8
20260904230155 89 257 0.0 0.0 0.00 0.00 0.00 76 1013.7
20260904225652 90 257 0.0 0.0 0.00 0.00 0.00 75 1013.7
20260904225151 92 257 0.0 0.0 0.00 0.00 0.00 74 1013.8
20260904224653 92 257 0.0 0.0 0.00 0.00 0.00 76 1013.9
20260904224151 92 257 0.0 0.0 0.00 0.00 0.00 75 1013.8
20260904223648 92 257 0.0 0.0 0.00 0.00 0.00 73 1013.8
20260904223255 92 257 0.0 0.0 0.00 0.00 0.00 71 1013.9
20260904223234 92 257 0.0 0.0 0.00 0.00 0.00 72 1013.9
20260904222147 93 257 0.0 0.0 0.00 0.00 0.00 71 1013.9
20260904221645 94 257 0.0 0.0 0.00 0.00 0.00 71 1014.0
20260904221141 94 257 0.0 0.0 0.00 0.00 0.00 69 1014.0
20260904220642 94 257 0.0 0.0 0.00 0.00 0.00 70 1014.1
20260904220415 94 257 0.0 0.0 0.00 0.00 0.00 66 1014.0
20260904215640 94 257 0.0 0.0 0.00 0.00 0.00 69 1014.0
20260904215411 94 257 0.0 0.0 0.00 0.00 0.00 69 1014.1
20260904214638 93 257 0.0 0.0 0.00 0.00 0.00 72 1014.0
20260904214138 93 257 0.0 0.0 0.00 0.00 0.00 69 1014.0
20260904213637 93 257 0.0 0.0 0.00 0.00 0.00 70 1014.1
20260904213135 93 257 0.0 0.0 0.00 0.00 0.00 71 1014.1
20260904212909 92 257 0.0 0.0 0.00 0.00 0.00 70 1014.1
20260904212129 92 257 0.0 0.0 0.00 0.00 0.00 70 1014.1
20260904211623 93 257 0.0 0.0 0.00 0.00 0.00 65 1014.0
20260904211117 92 257 0.0 0.0 0.00 0.00 0.00 70 1014.0
20260904210611 91 257 0.0 0.0 0.00 0.00 0.00 74 1014.1
20260904210335 91 257 0.0 0.0 0.00 0.00 0.00 77 1014.1
20260904205605 91 257 0.0 0.0 0.00 0.00 0.00 75 1014.1
20260904204604 91 257 0.0 0.0 0.00 0.00 0.00 74 1014.2
20260904204102 91 257 0.0 0.0 0.00 0.00 0.00 72 1014.1
20260904203832 92 257 0.0 0.0 0.00 0.00 0.00 72 1014.2
20260904203100 94 257 0.0 0.0 0.00 0.00 0.00 67 1014.3